Location: Acts Church of Fort Worth
(32.6786°N, 97.2668°W)
Time: 22:50:41
(UTC+00:00)

Cosmos 1833 Rocket - Pass Details

Date: 18 January 2026
Orbit: 832 x 838 km, 71.0° (Epoch: 13 February)

Event Time Altitude Azimuth Distance (km) Brightness Sun altitude
Rises 00:19:28 0° 180° (S) 3,370 6.1 -7.0°
Reaches altitude 10° 00:22:00 10° 174° (S) 2,441 5.3 -7.5°
Maximum altitude 00:27:14 41° 105° (ESE) 1,188 3.1 -8.5°
Drops below altitude 10° 00:32:29 10° 36° (NE) 2,455 4.6 -9.6°
Enters shadow 00:33:57 - 32° (NNE) 2,987 5.1 -9.9°
